Вернуться в каталог

FOSSASAT2E18

TAT-A

АктивенСвязьSSO
NORAD 62686·PAYLOAD·🇪🇸 Spain

Запущен Jan 14, 2025 с Vandenberg Space Force Base

Loading…

Ближайшие Пролёты (ближайшие 24 часа)

TLE

СвежийSource: Space-Track

Эпоха: Sep 14, 2026, 04:39 UTC

1 62686U 25009CF  26257.19393758  .00002014  00000-0  92739-4 0  9992
2 62686  97.3914 333.9398 0006805  38.1416 322.0301 15.21429939 92224

Отслеживайте FOSSASAT2E18 в реальном времени с AllMySat

Download on the App Store